Flag for Honduras Weather past 2 weeks in Choloma, Honduras

Now
86 °F

Passing clouds.


Feels Like: 93 °F
Forecast: N/A
Wind: 17 mph from North

Location: La Mesa San Pedro Sula

Current Time: Jul 24, 2014 at 5:44:21 PM

Latest Report: Jul 24, 2014 at 5:00 PM


Visibility: N/A

Pressure: 29.89 "Hg

Humidity: 66%

Dew point: 73 °F

Location of CholomaLocation

Historic Weather in Choloma — Graph

°F

Choloma temperature yesterday

Maximum temperature yesterday: 91 °F (at 1:00 PM)
Minimum temperature yesterday: 75 °F (at 3:00 AM)
Average temperature yesterday: 83 °F

Past Weeks' High & Low Weather Summary

 TemperatureHumidityPressure
High99 °F (Jul 19, 2:00 PM)100% (Jul 10, 12:00 AM)32.22 "Hg (Jul 10, 12:00 AM)
Low72 °F (Jul 13, 5:00 AM)42% (Jul 19, 2:00 PM)29.83 "Hg (Jul 11, 12:00 AM)
Average83 °F81%29.95 "Hg
* Reported Jul 9 4:00 PM — Jul 24 4:00 PM, Choloma, Weather by CustomWeather, © 2014

Note: Actual official high and low records may vary slightly from our data, if they occured in-between our weather recording intervals... More about our weather records

Advertising

Choloma weather history for previous 24 hours

 ConditionsComfort  
Time TempWeatherWind HumidityBarometerVisibility
4:00 PM
Jul 24
88 °FPassing clouds.16 mph62%29.86 "HgN/A
3:00 PM91 °FPassing clouds.16 mph52%29.86 "HgN/A
2:00 PM91 °FPassing clouds.16 mph56%29.89 "HgN/A
1:00 PM91 °FPassing clouds.12 mph52%29.92 "HgN/A
12:00 PM91 °FPassing clouds.8 mph49%29.95 "HgN/A
11:00 AM90 °FPassing clouds.No wind55%29.95 "HgN/A
10:00 AM90 °FPassing clouds.No wind67%29.95 "HgN/A
9:00 AM84 °FPassing clouds.5 mph79%29.98 "HgN/A
8:00 AM82 °FPassing clouds.No wind84%29.98 "HgN/A
7:00 AM79 °FPassing clouds.5 mph100%29.95 "HgN/A
6:00 AM75 °FPassing clouds.No wind100%29.92 "HgN/A
5:00 AM75 °FPassing clouds.No wind100%29.92 "HgN/A
4:00 AM77 °FPassing clouds.No wind100%29.89 "HgN/A
3:00 AM77 °FPassing clouds.No wind100%29.89 "HgN/A
2:00 AM77 °FPassing clouds.No wind100%29.89 "HgN/A
1:00 AM79 °FPassing clouds.3 mph94%29.92 "HgN/A
12:00 AM79 °FPassing clouds.5 mph94%29.92 "HgN/A
11:00 PM
Jul 23
81 °FPassing clouds.5 mph89%29.95 "HgN/A
10:00 PM81 °FPassing clouds.7 mph89%29.95 "HgN/A
9:00 PM81 °FPassing clouds.3 mph89%29.92 "HgN/A
8:00 PM82 °FPassing clouds.7 mph89%29.92 "HgN/A
7:00 PM82 °FPassing clouds.12 mph84%29.89 "HgN/A
6:00 PM84 °FPartly sunny.12 mph79%29.89 "HgN/A
5:00 PM86 °FPartly sunny.17 mph75%29.89 "HgN/A
Weather by CustomWeather, © 2014

See weather overviewHow to use our weather pages